| time (UTC) | temp F | wind direction | speed knots | gust knots | rain 1hr in | rain 24hr in | rain mn in | humidity % | barometer mb |
| 20260504201526 | 69 | 273 | 1.7 | 8.7 | 0.00 | 0.00 | 0.00 | 31 | 1015.5 |
| 20260504200025 | 70 | 242 | 1.7 | 7.8 | 0.00 | 0.00 | 0.00 | 31 | 1015.7 |
| 20260504194524 | 69 | 226 | 1.7 | 6.1 | 0.00 | 0.00 | 0.00 | 29 | 1015.8 |
| 20260504193022 | 71 | 259 | 0.9 | 5.2 | 0.00 | 0.00 | 0.00 | 29 | 1016.2 |
| 20260504191520 | 68 | 148 | 1.7 | 5.2 | 0.00 | 0.00 | 0.00 | 30 | 1016.4 |
| 20260504190019 | 69 | 248 | 2.6 | 7.0 | 0.00 | 0.00 | 0.00 | 29 | 1016.4 |
| 20260504184619 | 70 | 244 | 4.3 | 11.3 | 0.00 | 0.00 | 0.00 | 32 | 1016.5 |
| 20260504183015 | 69 | 271 | 3.5 | 11.3 | 0.00 | 0.00 | 0.00 | 30 | 1016.8 |
| 20260504181513 | 68 | 286 | 3.5 | 11.3 | 0.00 | 0.00 | 0.00 | 33 | 1017.1 |
| 20260504180013 | 68 | 261 | 3.5 | 11.3 | 0.00 | 0.00 | 0.00 | 33 | 1017.2 |
| 20260504174510 | 66 | 263 | 3.5 | 7.8 | 0.00 | 0.00 | 0.00 | 30 | 1017.2 |
| 20260504173009 | 66 | 265 | 2.6 | 9.6 | 0.00 | 0.00 | 0.00 | 32 | 1017.4 |
| 20260504171504 | 66 | 229 | 4.3 | 7.8 | 0.00 | 0.00 | 0.00 | 33 | 1017.5 |
| 20260504081600 | 34 | 303 | 0.0 | 0.9 | 0.00 | 0.00 | 0.00 | 66 | 1018.7 |
| 20260504044531 | 40 | 302 | 0.0 | 3.5 | 0.00 | 0.00 | 0.00 | 54 | 1019.4 |
| 20260504043038 | 40 | 275 | 0.0 | 0.0 | 0.00 | 0.00 | 0.00 | 54 | 1019.4 |
| 20260504041527 | 40 | 275 | 0.0 | 0.0 | 0.00 | 0.00 | 0.00 | 52 | 1019.3 |
| 20260504040026 | 40 | 275 | 0.0 | 0.9 | 0.00 | 0.00 | 0.00 | 51 | 1019.2 |
| 20260504034525 | 41 | 275 | 0.0 | 0.0 | 0.00 | 0.00 | 0.00 | 48 | 1019.3 |
| 20260504033023 | 42 | 275 | 0.0 | 0.0 | 0.00 | 0.00 | 0.00 | 47 | 1019.1 |
| 20260504031523 | 44 | 275 | 0.0 | 1.7 | 0.00 | 0.00 | 0.00 | 41 | 1019.1 |
| 20260504030026 | 43 | 274 | 0.0 | 1.7 | 0.00 | 0.00 | 0.00 | 43 | 1018.9 |
| 20260504024521 | 45 | 360 | 0.0 | 2.6 | 0.00 | 0.00 | 0.00 | 40 | 1019.3 |
| 20260504023021 | 45 | 360 | 0.0 | 0.0 | 0.00 | 0.00 | 0.00 | 39 | 1019.3 |
| 20260504021520 | 45 | 275 | 0.0 | 1.7 | 0.00 | 0.00 | 0.00 | 38 | 1019.4 |
| 20260504020020 | 47 | 266 | 0.9 | 3.5 | 0.00 | 0.00 | 0.00 | 33 | 1019.0 |
| 20260504014530 | 47 | 281 | 0.9 | 3.5 | 0.00 | 0.00 | 0.00 | 34 | 1018.9 |
| 20260504013032 | 47 | 273 | 0.9 | 3.5 | 0.00 | 0.00 | 0.00 | 34 | 1018.8 |
| 20260504011521 | 47 | 289 | 0.9 | 3.5 | 0.00 | 0.00 | 0.00 | 34 | 1018.8 |
| 20260504010118 | 47 | 360 | 0.9 | 3.5 | 0.00 | 0.00 | 0.00 | 35 | 1018.6 |
| 20260504004518 | 47 | 360 | 0.0 | 0.9 | 0.00 | 0.00 | 0.00 | 38 | 1018.5 |
| 20260504003017 | 50 | 360 | 0.9 | 3.5 | 0.00 | 0.00 | 0.00 | 33 | 1018.5 |
| 20260504001516 | 52 | 360 | 0.0 | 5.2 | 0.00 | 0.00 | 0.00 | 25 | 1018.4 |
| 20260504000015 | 53 | 281 | 0.9 | 5.2 | 0.00 | 0.00 | 0.00 | 26 | 1018.4 |
| 20260503234515 | 55 | 342 | 0.9 | 3.5 | 0.00 | 0.00 | 0.00 | 23 | 1018.3 |
| 20260503233020 | 56 | 252 | 0.9 | 3.5 | 0.00 | 0.00 | 0.00 | 21 | 1018.3 |
| 20260503231516 | 57 | 247 | 0.9 | 6.1 | 0.00 | 0.00 | 0.00 | 19 | 1018.1 |
| 20260503230016 | 58 | 261 | 1.7 | 7.0 | 0.00 | 0.00 | 0.00 | 16 | 1018.1 |
| 20260503224512 | 58 | 26 | 1.7 | 7.8 | 0.00 | 0.00 | 0.00 | 16 | 1018.2 |
| 20260503223012 | 59 | 337 | 3.5 | 7.8 | 0.00 | 0.00 | 0.00 | 16 | 1018.2 |
| 20260503221511 | 59 | 286 | 3.5 | 11.3 | 0.00 | 0.00 | 0.00 | 14 | 1018.3 |
| 20260503220113 | 60 | 261 | 2.6 | 7.8 | 0.00 | 0.00 | 0.00 | 13 | 1018.3 |
| 20260503214509 | 60 | 281 | 1.7 | 8.7 | 0.00 | 0.00 | 0.00 | 15 | 1018.4 |
| 20260503213108 | 59 | 20 | 4.3 | 10.4 | 0.00 | 0.00 | 0.00 | 12 | 1018.8 |
| 20260503211506 | 61 | 286 | 2.6 | 9.6 | 0.00 | 0.00 | 0.00 | 11 | 1018.8 |
| 20260503210006 | 61 | 257 | 2.6 | 8.7 | 0.00 | 0.00 | 0.00 | 13 | 1019.0 |
| 20260503204505 | 60 | 248 | 4.3 | 11.3 | 0.00 | 0.00 | 0.00 | 13 | 1019.1 |
| 20260503203010 | 60 | 261 | 4.3 | 9.6 | 0.00 | 0.00 | 0.00 | 16 | 1019.1 |